Location: Mount Graham
(32.7016°N, 109.8912°W)
Time: 04:56:58
(UTC-07:00)

Daily predictions for brighter satellites

Satellite Brightness Start Highest point End
(mag) Time Altitude Azimuth Time Altitude Azimuth Time Altitude Azimuth
Lacrosse 5 4.4 03:06:15 16° NE 03:06:15 16° NE 03:07:17 10° NE
Cosmos 2344 4.2 03:07:13 47° N 03:07:13 47° N 03:13:16 10° NNE
USA 215 3.9 03:07:32 10° ESE 03:12:33 50° E 03:12:33 50° E
Cosmos 2333 Rocket 4.2 03:30:25 18° SE 03:30:25 18° SE 03:31:49 10° SE
Cosmos 2237 Rocket 2.4 03:48:08 65° NE 03:48:25 66° ENE 03:53:59 10° SSE
CZ-4B R/B 3.6 03:43:05 10° NNE 03:48:28 58° ESE 03:49:08 54° SE
ATLAS 5 CENTAUR R/B 2.9 03:45:47 21° NNW 03:49:56 59° ENE 03:56:22 10° SE
Cosmos 1339 Rocket 4.4 03:49:58 85° SSE 03:50:08 87° E 03:56:34 10° N
ADEOS II 4.0 03:46:07 10° NE 03:50:34 27° E 03:54:59 10° SSE
NOSS 3-4 (A) 4.3 03:52:51 37° NNW 03:52:51 37° NNW 03:57:33 10° NNE
Meteor 2-4 Rocket 4.2 03:50:00 47° SSE 03:51:27 62° E 03:57:16 10° NNE
NOSS 3-4 (C) 4.3 03:52:56 38° NNW 03:52:56 38° NNW 03:57:40 10° NNE
Hubble Space Telescope 3.6 03:58:58 11° SE 03:58:58 11° SE 03:59:08 10° SE
Cosmos 1680 Rocket 3.9 03:51:15 10° NNW 03:57:32 56° SE 04:01:44 10° SSE
Centaur D-1A AC-31 3.6 04:03:05 11° SSE 04:03:05 11° SSE 04:03:17 10° SSE
Cosmos 1606 Rocket 4.2 03:57:53 10° N 04:02:08 51° E 04:02:18 51° E
Okean O Rocket 3.3 03:57:49 10° N 03:59:42 25° N 03:59:42 25° N
Cosmos 1980 3.9 04:03:45 57° S 04:03:45 57° S 04:08:11 10° SSE
SL-16 R/B 3.4 04:03:29 10° N 04:08:50 41° ENE 04:14:08 10° SE
CZ-2D R/B 4.5 04:08:59 10° NNW 04:09:00 10° NNW 04:09:00 10° NNW
Cosmos 1726 Rocket 4.1 04:08:26 10° N 04:12:46 58° E 04:17:01 10° SSE
Cosmos 2298 Rocket 3.9 04:14:19 58° S 04:15:24 87° ESE 04:20:44 10° NNE
Cosmos 2227 Rocket 3.4 04:17:32 27° NNW 04:17:32 27° NNW 04:20:58 10° N
Cosmos 1346 Rocket 4.2 04:21:05 29° N 04:21:05 29° N 04:23:10 10° N
Cosmos 1892 Rocket 3.5 04:20:44 76° NNW 04:20:44 76° NNW 04:24:57 10° N
Tiangong 1 3.9 04:25:49 12° N 04:25:49 12° N 04:26:34 10° NNE
Cosmos 2297 Rocket 2.9 04:25:40 36° NW 04:25:40 36° NW 04:30:16 10° N
GOES 2 Rocket 4.0 04:24:19 48° SW 04:25:42 60° S 04:32:59 10° ESE
Thor Agena Rocket 3.9 04:21:27 10° SSE 04:26:41 68° ENE 04:31:57 10° N
Cosmos 2061 Rocket 4.2 04:21:33 10° N 04:27:53 75° E 04:34:16 10° S
Cosmos 2100 Rocket 4.0 04:21:38 10° N 04:27:55 84° E 04:34:14 10° S
CZ-2C R/B 4.3 04:29:57 40° NW 04:29:57 40° NW 04:33:07 10° NNW
Cosmos 1802 Rocket 4.3 04:23:17 10° N 04:29:24 67° E 04:35:29 10° SSE
Cosmos 2150 Rocket 3.8 04:27:48 42° SSW 04:29:32 79° WNW 04:34:42 10° NNE
PSLV R/B 3.5 04:25:59 10° NNE 04:30:20 83° ESE 04:32:27 29° S
MOS 1 Rocket 4.4 04:33:41 10° NNE 04:38:27 49° E 04:43:26 10° S
Cosmos 2228 3.5 04:36:28 10° N 04:40:49 64° E 04:45:07 10° SSE
NOSS 3-2 (A) 4.3 04:37:11 10° NW 04:44:27 45° WSW 04:52:05 10° S
COBE Rocket 4.5 04:40:42 10° NNE 04:45:21 55° E 04:49:53 10° S
Lacrosse 5 3.8 04:45:28 14° NW 04:45:50 14° NW 04:48:35 10° N
Cosmos 292 Rocket 3.7 04:41:01 10° NNW 04:45:52 69° WSW 04:50:40 10° S
OTV 4 1.3 04:46:54 37° SSE 04:46:54 37° SSE 04:48:49 10° SE
Cosmos 2098 Rocket 3.5 04:48:26 10° N 04:52:40 74° E 04:58:05 10° S
USA 129 4.3 04:54:25 10° SE 04:56:02 21° ENE 04:57:33 10° NNE
CZ-4B R/B 4.2 04:52:50 10° NNE 04:56:40 62° E 05:00:20 10° S
USA 215 4.0 04:51:31 10° S 04:57:06 30° SW 04:59:59 22° W
DELTA 2 R/B (1) 4.2 04:54:22 25° WNW 04:57:17 46° N 05:02:39 10° ENE
Cosmos 1898 Rocket 4.0 04:55:17 27° WSW 04:57:26 38° WNW 05:02:23 10° N
Genesis I 3.1 04:56:58 18° SSW 04:59:49 88° WNW 05:03:50 10° NNE
Delta 142 4.1 04:58:17 28° WSW 05:00:14 44° S 05:04:12 10° ESE
Meteor 1-31 Rocket 2.8 04:57:58 10° NNE 05:01:54 82° ESE 05:05:50 10° S
Cosmos 2016 Rocket 3.9 04:55:41 10° N 05:02:00 78° W 05:08:14 10° S
Cosmos 724 4.3 04:56:56 10° NNW 05:03:10 76° WSW 05:09:20 10° SSE
Cosmos 2058 Rocket 3.4 05:02:22 10° NNW 05:06:27 40° W 05:10:31 10° SSW
Cosmos 2173 Rocket 4.1 05:01:32 10° NNW 05:07:22 48° W 05:13:13 10° SSW
Okean-O 2.9 05:03:15 10° N 05:07:29 45° WNW 05:11:41 10° SW
Meteor 1-15 Rocket 4.4 05:03:12 10° NNW 05:08:33 49° W 05:13:56 10° SSW
Cosmos 1937 Rocket 3.9 05:05:39 15° SW 05:09:42 41° WNW 05:14:40 10° N
Cosmos 2333 Rocket 4.0 05:12:41 12° SW 05:12:41 12° SW 05:13:28 10° SW
SL-08 R/B 4.5 05:04:11 10° N 05:10:27 81° W 05:16:48 10° S
Cosmos 1515 3.6 05:07:40 10° SSW 05:11:29 68° W 05:15:18 10° N
FALCON 9 R/B 3.9 05:06:13 18° WSW 05:11:39 82° SSE 05:39:15 10° ENE
OAO 2 Rocket 3.4 05:09:22 21° WSW 05:13:01 89° NNW 05:18:22 10° ENE
ADEOS Rocket 3.7 05:07:30 10° N 05:13:45 37° WNW 05:19:27 10° SW
COSMO-SKYMED 1 4.3 05:10:20 10° SE 05:14:18 36° ENE 05:18:18 10° N
Cosmos 1459 Rocket 4.4 05:08:26 10° NNW 05:14:19 41° W 05:20:08 10° SSW
Cosmos 2123 Rocket 3.9 05:09:04 10° SSW 05:15:12 68° W 05:21:21 10° N
USA 116 4.4 05:11:02 10° S 05:16:09 56° W 05:20:51 10° NNW
NOSS 2-2 (D) 3.9 05:13:40 18° WSW 05:16:19 42° NW 05:20:35 10° NNE
Cosmos 1666 4.1 05:14:05 10° NW 05:21:23 - SSW 05:16:20 19° WNW
CENTAUR R/B 3.4 05:09:42 10° NNW 05:17:45 77° ENE 05:26:07 10° SE
NOAA 6 4.0 05:19:04 10° N 05:24:17 81° WNW 05:29:27 10° SSW
Cosmos 1340 2.8 05:20:59 10° S 05:24:45 79° E 05:28:33 10° N
BREEZE-M DEB (TANK) 4.0 05:26:50 10° NNW 05:29:21 32° NE 05:33:45 10° ESE
ADEOS II 2.9 05:25:42 10° NNW 05:30:10 29° WNW 05:34:38 10° SW
Cosmos 2237 Rocket 3.8 05:30:28 11° W 05:31:46 12° W 05:33:59 10° WSW
NOSS 2-2 (C) 4.5 05:28:38 12° WSW 05:31:48 29° NW 05:35:45 10° N
Cosmos 1626 Rocket 4.2 05:27:56 10° SW 05:31:55 34° W 05:35:54 10° NNW
ATLAS 5 CENTAUR R/B 3.6 05:29:45 10° WNW 05:34:19 21° WSW 05:39:03 10° SSW
Iridium 4 Rocket 3.7 05:38:39 10° S 05:43:40 70° E 05:48:17 10° N
Intercosmos 25 Rocket 3.9 05:42:51 10° N 05:46:47 78° W 05:53:00 10° S
CZ-4 R/B 3.8 05:43:46 10° NE 05:47:16 29° E 05:50:48 10° SSE
Delta 2 Rocket 3.0 05:45:00 10° WNW 05:48:44 67° SSW 05:52:08 10° ESE
Cosmos 1953 Rocket 3.9 05:45:18 10° S 05:49:43 75° E 05:54:12 10° N
Radarsat Rocket 4.2 05:46:42 10° N 05:53:06 57° WNW 05:58:54 10° SSW
BREEZE-M DEB (TANK) 3.1 05:49:15 10° NW 05:57:12 68° NE 06:00:05 10° ESE
